Find Starlink 34267

NORAD ID: 65080 Int'l Des: 2025-167 Owner: SPXS Country: US Constellation: starlink operational
LEOCIRCULAR

現在のビュー

3D地球を読み込み中...

About Starlink 34267

Starlink 34267 (NORAD 65080) is a starlink constellation satellite (v2 mini) launched Aug 4, 2025 by SPXS of US. It operates in LEO, CIRCULAR orbit with a mass of 575.00 kg.

Starlink 34267について

説明を読み込み中...

次回通過

Passes for default location (London). Set your location on the main map for personalized predictions.

高度履歴

Loading altitude history...

軌道要素

1 65080U 25167C 26192.35011466 .00016748 00000-0 50560-3 0 9991
2 65080 53.1609 168.0053 0000673 45.5828 314.5229 15.34406361 53698
Epoch: Jul 11, 2026 • Age: 19 hours

現在のステータス

高度 462.6 km
遠地点 / 近地点 N/A
速度 7.64 km/s
衛星直下点 18.85°N, 159.94°W
打ち上げ日 Aug 4, 2025
運用期間 0.9 years
タイプ internet

技術仕様

分類 Payload
質量 575.00 kg
乾燥質量 530.00 kg
総質量 575.00 kg
長さ 0.30 m
直径 4.10 m
スパン 29.00 m
形状 Box + pan
製造者 SPXS
バスタイプ Starlink V2MO
フェーズステータス In Orbit
所有者/国 SPXS/US

Most Searched